Weather History for Henderson, NV

Change the Weather History Date:

Sunday, April 28, 2013

  Actual Average (KLAS) Record (KLAS)
Temperature  
Mean Temperature 78 °F 71 °F  
Max Temperature 95 °F 82 °F 97 °F (2007)
Min Temperature 61 °F 60 °F 39 °F (1955)
Degree Days  
Heating Degree Days 0 1  
Month to date heating degree days 62  
Since 1 July heating degree days 1942  
Cooling Degree Days 13 7  
Month to date cooling degree days 114  
Year to date cooling degree days 145  
Growing Degree Days 28 (Base 50)    
Moisture  
Dew Point 13 °F    
Average Humidity 9    
Maximum Humidity 16    
Minimum Humidity 4    
Precipitation  
Precipitation 0.00 in 0.00 in 0.09 in (1952)
Month to date precipitation 0.14  
Year to date precipitation 1.88  
Snow  
Snow 0.00 in 0.00 in T in (1970)
Month to date snowfall 0.0  
Since 1 July snowfall 0.3  
Snow Depth -    
Sea Level Pressure  
Sea Level Pressure 29.85 in    
Wind  
Wind Speed 8 mph (SSW)    
Max Wind Speed 15 mph    
Max Gust Speed 20 mph    
Visibility 10 miles    
Events      
T = Trace of Precipitation, MM = Missing Value Source: NWS Daily Summary

Daily Weather History Graph

Daily Weather History Graph

Search for Another Location

Airport:

Trip Planner

Search our weather history database for the weather conditions in past years. The results will help you decide how hot, cold, wet, or windy it might be!

Date:

Astronomy

Apr. 28, 2013 Rise Set
Actual Time 5:51 AM PDT 7:25 PM PDT
Civil Twilight 5:23 AM PDT 7:52 PM PDT
Nautical Twilight 4:51 AM PDT 8:25 PM PDT
Astronomical Twilight 4:16 AM PDT 9:00 PM PDT
Moon 10:56 PM PDT (4/28) 8:15 AM PDT (4/28)
Length of Visible Light 14h 29m
Length of Day
13h 34m
Waning Gibbous, 88% of the Moon is Illuminated
Apr 28
Waning Gibbous
May 2
Last Quarter
May 9
New
May 17
First Quarter
May 24
Full

Hourly Weather History & Observations

Time (PDT) Temp. Dew Point Humidity Pressure Visibility Wind Dir Wind Speed Gust Speed Precip Events Conditions
12:56 AM 70.9 °F 12.0 °F 10% 29.92 in 10.0 mi SSW 12.7 mph - N/A   Clear
1:56 AM 68.0 °F 12.0 °F 11% 29.91 in 10.0 mi SSW 10.4 mph - N/A   Clear
2:56 AM 68.0 °F 12.0 °F 11% 29.91 in 10.0 mi South 9.2 mph - N/A   Clear
3:56 AM 63.9 °F 13.1 °F 14% 29.92 in 10.0 mi South 8.1 mph - N/A   Clear
4:56 AM 63.0 °F 16.2 °F 16% 29.93 in 10.0 mi SSE 9.2 mph - N/A   Clear
5:56 AM 61.0 °F 12.0 °F 15% 29.94 in 10.0 mi South 6.9 mph - N/A   Clear
6:56 AM 63.9 °F 15.1 °F 15% 29.95 in 10.0 mi Calm Calm - N/A   Clear
7:56 AM 72.9 °F 14.0 °F 11% 29.95 in 10.0 mi Calm Calm - N/A   Clear
8:56 AM 79.0 °F 14.0 °F 9% 29.94 in 10.0 mi Calm Calm - N/A   Clear
9:56 AM 81.9 °F 16.2 °F 9% 29.94 in 10.0 mi Calm Calm - N/A   Clear
10:56 AM 84.9 °F 15.1 °F 7% 29.93 in 10.0 mi Calm Calm - N/A   Clear
11:56 AM 88.9 °F 14.0 °F 6% 29.91 in 10.0 mi Variable 4.6 mph - N/A   Clear
12:56 PM 90.0 °F 14.0 °F 6% 29.88 in 10.0 mi Variable 5.8 mph - N/A   Clear
1:56 PM 92.8 °F 11.1 °F 5% 29.85 in 10.0 mi Calm Calm - 0.00 in   Clear
2:56 PM 95.0 °F 12.0 °F 5% 29.80 in 10.0 mi Variable 6.9 mph - N/A   Clear
3:56 PM 95.0 °F 8.1 °F 4% 29.78 in 10.0 mi SW 9.2 mph 19.6 mph N/A   Clear
4:56 PM 95.0 °F 8.1 °F 4% 29.76 in 10.0 mi SW 15.0 mph 19.6 mph N/A   Clear
5:56 PM 93.9 °F 8.1 °F 4% 29.75 in 10.0 mi SW 8.1 mph - N/A   Clear
6:56 PM 91.9 °F 12.0 °F 5% 29.74 in 10.0 mi WSW 6.9 mph - N/A   Clear
7:56 PM 86.9 °F 14.0 °F 7% 29.74 in 10.0 mi SSW 9.2 mph - N/A   Clear
8:56 PM 81.9 °F 14.0 °F 8% 29.75 in 10.0 mi SSW 8.1 mph - N/A   Clear
9:56 PM 79.0 °F 13.1 °F 8% 29.76 in 10.0 mi South 9.2 mph - N/A   Clear
10:56 PM 79.9 °F 14.0 °F 8% 29.75 in 10.0 mi South 9.2 mph - N/A   Clear
11:56 PM 75.9 °F 13.1 °F 9% 29.75 in 10.0 mi SW 9.2 mph - N/A   Clear